User: anonymous   Login
Location: Fort Wayne
(41.1310°N, 85.1290°W)
Time: 08:46:26
(UTC-05:00)
Language:

Cosmos 2082 - Orbit

View from above orbital plane
View from above orbital plane
View from above satellite
View from above satellite

Ground track
Ground track

The orbit data is extracted from the following two-line orbital elements,

1 20624U 90046A   14327.20309443  .00000275  00000-0  16927-3 0   730
2 20624 071.0407 015.5884 0014714 008.0225 047.6926 14.14101850264731
Epoch (UTC): 23 November 2014 04:52:27
Eccentricity: 0.0014714
inclination: 71.0407°
perigee height: 835 km
apogee height: 856 km
right ascension of ascending node: 15.5884°
argument of perigee: 8.0225°
revolutions per day: 14.14101850
mean anomaly at epoch: 47.6926°
orbit number at epoch: 26473

The dashed part of the orbit path shows where the satellite is in the earth's shadow,  

DLR